This demonstration page uses our WeatherBlox Daily Observations layout. Learn more.

Left ArrowRight Arrow

39.92423, -83.80882

Hourly Observations for June 28, 2021

Temp ( °F °C ) Dew Point ( °F °C ) Humidity (%) Winds ( mph kmh ) Pressure ( in mb ) Visibility ( mi km ) Precip ( " mm )
12:56 am 00:56 Clear 77 25 72 22.2 85 85 SSW 6 9 30.12 1020 10 16 N/A
1:56 am 01:56 Clear 76 24.4 72 22.2 88 88 SSW 5 7 30.12 1020 10 16 N/A
2:56 am 02:56 Clear 74 23.3 74 23.3 100 100 S 3 6 30.13 1020 10 16 N/A
3:56 am 03:56 Clear 72 22.2 72 22.2 100 100 S 3 6 30.14 1021 10 16 N/A
4:56 am 04:56 Clear 72 22.2 72 22.2 100 100 S 3 6 30.15 1021 10 16 N/A
5:56 am 05:56 Clear 72 22 N/A N/A S 5 7 30.16 1021 10 16 N/A
6:56 am 06:56 Sunny 72 22.2 72 22.2 100 100 SSW 3 6 30.17 1022 10 16 N/A
7:56 am 07:56 Sunny 76 24.4 73 22.8 91 91 SW 8 13 30.18 1022 10 16 N/A
8:56 am 08:56 Sunny 79 26.1 73 22.8 82 82 SW 6 9 30.19 1022 10 16 N/A
9:56 am 09:56 Sunny 82 27.8 74 23.3 77 77 SSW 5 7 30.20 1023 10 16 N/A
10:56 am 10:56 Sunny 86 30 74 23.3 67 67 WSW 8 13 30.20 1023 10 16 N/A
11:56 am 11:56 Partly Cloudy 87 30.6 73 22.8 63 63 SSW 7 11 30.21 1023 10 16 N/A
12:56 pm 12:56 Mostly Sunny 87 30.6 73 22.8 63 63 WSW 6 9 30.20 1023 10 16 N/A
1:56 pm 13:56 Sunny 88 31.1 74 23.3 63 63 SSW 8 13 30.19 1022 10 16 N/A
2:56 pm 14:56 Sunny 87 30.6 72 22.2 61 61 VRB 5 7 30.19 1022 10 16 N/A
3:56 pm 15:56 Sunny 84 28.9 73 22.8 70 70 S 8 13 30.18 1022 10 16 N/A
4:19 pm 16:19 Sunny with Nearby Thunderstorms 84 29 73 23 70 70 SSW 7 11 30.13 1020 10 16 N/A
4:34 pm 16:34 Sunny 86 30 75 24 70 70 S 9 15 30.12 1020 10 16 N/A
4:56 pm 16:56 Sunny 86 30 73 22.8 65 65 SSW 7 11 30.17 1022 10 16 N/A
5:56 pm 17:56 Sunny 88 31.1 73 22.8 61 61 SSW 6 9 30.16 1021 10 16 N/A
6:56 pm 18:56 Sunny 88 31.1 72 22.2 59 59 VRB 6 9 30.15 1021 10 16 N/A
7:56 pm 19:56 Sunny 87 30.6 74 23.3 65 65 N N/A 30.16 1021 10 16 N/A
8:56 pm 20:56 Sunny 82 27.8 74 23.3 77 77 N N/A 30.17 1022 10 16 N/A
9:56 pm 21:56 Clear 78 25.6 75 23.9 90 90 N N/A 30.18 1022 10 16 N/A
10:56 pm 22:56 Partly Cloudy 75 24 N/A N/A E 3 6 30.19 1023 9 14 N/A
11:56 pm 23:56 Clear 77 25 75 23.9 94 94 S 7 11 30.20 1023 10 16 N/A

Powered by AerisWeather